Location: Anuling
(14.1239°N, 120.8922°E)
Time: 01:18:28
(UTC+00:00)

GPS 2-17 Rocket1 - Pass Details

Date: 18 April 2026
Orbit: 544 x 613 km, 20.3° (Epoch: 19 May)

Event Time Altitude Azimuth Distance (km) Brightness Sun altitude
Rises 10:57:39 0° 285° (WNW) 2,844 8.7 -12.0°
Reaches altitude 10° 10:59:59 10° 284° (WNW) 1,947 7.1 -12.5°
Maximum altitude 11:04:34 85° 196° (SSW) 613 3.0 -13.6°
Enters shadow 11:07:24 23° 109° (ESE) 1,299 4.1 -14.3°
